Time,TemperatureF,DewpointF,PressureIn,WindDirection,WindDirectionDegrees,WindSpeedMPH,WindSpeedGustMPH,Humidity,HourlyPrecipIn,Conditions,Clouds,dailyrainin,SoftwareType,DateUTC
2013-02-17 00:02:00,15.0,-99.9,-100.00,West,276,3.0,-999.0,-999,-99.99,,,-99.99,,2013-02-17 05:02:00,
2013-02-17 00:12:00,15.0,-99.9,-100.00,West,276,3.0,-999.0,-999,-99.99,,,-99.99,,2013-02-17 05:12:00,
2013-02-17 00:22:00,15.0,-99.9,-100.00,West,276,3.0,-999.0,-999,-99.99,,,-99.99,,2013-02-17 05:22:00,
2013-02-17 00:33:00,15.0,-99.9,-100.00,West,276,3.0,-999.0,-999,-99.99,,,-99.99,,2013-02-17 05:33:00,
2013-02-17 00:42:00,15.0,-99.9,-100.00,West,276,3.0,-999.0,-999,-99.99,,,-99.99,,2013-02-17 05:42:00,
2013-02-17 01:02:00,14.0,-99.9,-100.00,West,281,1.0,-999.0,-999,-99.99,,,-99.99,,2013-02-17 06:02:00,
2013-02-17 01:11:00,14.0,-99.9,-100.00,West,281,1.0,-999.0,-999,-99.99,,,-99.99,,2013-02-17 06:11:00,
2013-02-17 01:22:00,14.0,-99.9,-100.00,West,281,1.0,-999.0,-999,-99.99,,,-99.99,,2013-02-17 06:22:00,
2013-02-17 01:32:00,14.0,-99.9,-100.00,West,269,3.0,-999.0,-999,-99.99,,,-99.99,,2013-02-17 06:32:00,
2013-02-17 01:42:00,14.0,-99.9,-100.00,West,269,3.0,-999.0,-999,-99.99,,,-99.99,,2013-02-17 06:42:00,
2013-02-17 01:52:00,14.0,-99.9,-100.00,WSW,256,2.0,-999.0,-999,-99.99,,,-99.99,,2013-02-17 06:52:00,
2013-02-17 02:02:00,14.0,-99.9,-100.00,WSW,256,2.0,-999.0,-999,-99.99,,,-99.99,,2013-02-17 07:02:00,
2013-02-17 02:11:00,14.0,-99.9,-100.00,West,261,1.0,-999.0,-999,-99.99,,,-99.99,,2013-02-17 07:11:00,
2013-02-17 02:22:00,14.0,-99.9,-100.00,West,261,1.0,-999.0,-999,-99.99,,,-99.99,,2013-02-17 07:22:00,
2013-02-17 02:32:00,14.0,-99.9,-100.00,WNW,286,2.0,-999.0,-999,-99.99,,,-99.99,,2013-02-17 07:32:00,
2013-02-17 02:42:00,14.0,-99.9,-100.00,WNW,286,2.0,-999.0,-999,-99.99,,,-99.99,,2013-02-17 07:42:00,
2013-02-17 02:52:00,14.0,-99.9,-100.00,WNW,292,1.0,-999.0,-999,-99.99,,,-99.99,,2013-02-17 07:52:00,
2013-02-17 03:02:00,14.0,-99.9,-100.00,WSW,237,2.0,-999.0,-999,-99.99,,,-99.99,,2013-02-17 08:02:00,
2013-02-17 03:11:00,14.0,-99.9,-100.00,WSW,237,2.0,-999.0,-999,-99.99,,,-99.99,,2013-02-17 08:11:00,
2013-02-17 03:22:00,14.0,-99.9,-100.00,WSW,249,2.0,-999.0,-999,-99.99,,,-99.99,,2013-02-17 08:22:00,
2013-02-17 03:32:00,14.0,-99.9,-100.00,WSW,249,2.0,-999.0,-999,-99.99,,,-99.99,,2013-02-17 08:32:00,
2013-02-17 03:42:00,14.0,-99.9,-100.00,WSW,249,2.0,-999.0,-999,-99.99,,,-99.99,,2013-02-17 08:42:00,
2013-02-17 03:52:00,14.0,-99.9,-100.00,WSW,249,2.0,-999.0,-999,-99.99,,,-99.99,,2013-02-17 08:52:00,
2013-02-17 04:02:00,14.0,-99.9,-100.00,WSW,249,2.0,-999.0,-999,-99.99,,,-99.99,,2013-02-17 09:02:00,
2013-02-17 04:22:00,14.0,-99.9,-100.00,WNW,290,3.0,-999.0,-999,-99.99,,,-99.99,,2013-02-17 09:22:00,
2013-02-17 04:32:00,14.0,-99.9,-100.00,WSW,243,1.0,-999.0,-999,-99.99,,,-99.99,,2013-02-17 09:32:00,
2013-02-17 04:42:00,14.0,-99.9,-100.00,WSW,243,1.0,-999.0,-999,-99.99,,,-99.99,,2013-02-17 09:42:00,
2013-02-17 04:52:00,14.0,-99.9,-100.00,West,263,2.0,-999.0,-999,-99.99,,,-99.99,,2013-02-17 09:52:00,
2013-02-17 05:01:00,14.0,-99.9,-100.00,West,263,2.0,-999.0,-999,-99.99,,,-99.99,,2013-02-17 10:01:00,
2013-02-17 05:11:00,14.0,-99.9,-100.00,West,263,2.0,-999.0,-999,-99.99,,,-99.99,,2013-02-17 10:11:00,
2013-02-17 05:22:00,13.0,-99.9,-100.00,WNW,283,2.0,-999.0,-999,-99.99,,,-99.99,,2013-02-17 10:22:00,
2013-02-17 05:32:00,13.0,-99.9,-100.00,West,267,3.0,-999.0,-999,-99.99,,,-99.99,,2013-02-17 10:32:00,
2013-02-17 05:42:00,13.0,-99.9,-100.00,West,267,3.0,-999.0,-999,-99.99,,,-99.99,,2013-02-17 10:42:00,
2013-02-17 05:52:00,13.0,-99.9,-100.00,WSW,240,1.0,-999.0,-999,-99.99,,,-99.99,,2013-02-17 10:52:00,
2013-02-17 06:02:00,13.0,-99.9,-100.00,WNW,301,0.0,-999.0,-999,-99.99,,,-99.99,,2013-02-17 11:02:00,
2013-02-17 06:11:00,13.0,-99.9,-100.00,WNW,301,0.0,-999.0,-999,-99.99,,,-99.99,,2013-02-17 11:11:00,
2013-02-17 06:22:00,13.0,-99.9,-100.00,WNW,286,0.0,-999.0,-999,-99.99,,,-99.99,,2013-02-17 11:22:00,
2013-02-17 06:32:00,13.0,-99.9,-100.00,WNW,286,0.0,-999.0,-999,-99.99,,,-99.99,,2013-02-17 11:32:00,
2013-02-17 06:42:00,13.0,-99.9,-100.00,WNW,286,0.0,-999.0,-999,-99.99,,,-99.99,,2013-02-17 11:42:00,
2013-02-17 06:53:00,13.0,-99.9,-100.00,WNW,286,0.0,-999.0,-999,-99.99,,,-99.99,,2013-02-17 11:53:00,
2013-02-17 07:03:00,13.0,-99.9,-100.00,WNW,286,0.0,-999.0,-999,-99.99,,,-99.99,,2013-02-17 12:03:00,
2013-02-17 07:32:00,12.0,-99.9,-100.00,WSW,256,1.0,-999.0,-999,-99.99,,,-99.99,,2013-02-17 12:32:00,
2013-02-17 07:42:00,12.0,-99.9,-100.00,WSW,256,1.0,-999.0,-999,-99.99,,,-99.99,,2013-02-17 12:42:00,
2013-02-17 07:52:00,12.0,-99.9,-100.00,WSW,243,0.0,-999.0,-999,-99.99,,,-99.99,,2013-02-17 12:52:00,
2013-02-17 08:02:00,12.0,-99.9,-100.00,WSW,243,0.0,-999.0,-999,-99.99,,,-99.99,,2013-02-17 13:02:00,
2013-02-17 08:12:00,12.0,-99.9,-100.00,WSW,243,0.0,-999.0,-999,-99.99,,,-99.99,,2013-02-17 13:12:00,
2013-02-17 08:22:00,12.0,-99.9,-100.00,WSW,243,0.0,-999.0,-999,-99.99,,,-99.99,,2013-02-17 13:22:00,
2013-02-17 08:32:00,12.0,-99.9,-100.00,WSW,243,0.0,-999.0,-999,-99.99,,,-99.99,,2013-02-17 13:32:00,
2013-02-17 08:52:00,14.0,-99.9,-100.00,West,281,4.0,-999.0,-999,-99.99,,,-99.99,,2013-02-17 13:52:00,
2013-02-17 09:01:00,14.0,-99.9,-100.00,West,281,4.0,-999.0,-999,-99.99,,,-99.99,,2013-02-17 14:01:00,
2013-02-17 09:12:00,14.0,-99.9,-100.00,West,281,4.0,-999.0,-999,-99.99,,,-99.99,,2013-02-17 14:12:00,
2013-02-17 09:22:00,14.0,-99.9,-100.00,West,281,4.0,-999.0,-999,-99.99,,,-99.99,,2013-02-17 14:22:00,
2013-02-17 09:32:00,16.0,-99.9,-100.00,WNW,293,0.0,-999.0,-999,-99.99,,,-99.99,,2013-02-17 14:32:00,
2013-02-17 09:42:00,16.0,-99.9,-100.00,WNW,293,0.0,-999.0,-999,-99.99,,,-99.99,,2013-02-17 14:42:00,
2013-02-17 09:53:00,17.0,-99.9,-100.00,WNW,293,2.0,-999.0,-999,-99.99,,,-99.99,,2013-02-17 14:53:00,
2013-02-17 10:02:00,17.0,-99.9,-100.00,WNW,293,2.0,-999.0,-999,-99.99,,,-99.99,,2013-02-17 15:02:00,
2013-02-17 10:11:00,17.0,-99.9,-100.00,WNW,293,2.0,-999.0,-999,-99.99,,,-99.99,,2013-02-17 15:11:00,
2013-02-17 10:22:00,19.0,-99.9,-100.00,WNW,293,1.0,-999.0,-999,-99.99,,,-99.99,,2013-02-17 15:22:00,
2013-02-17 10:32:00,20.0,-99.9,-100.00,WNW,293,0.0,-999.0,-999,-99.99,,,-99.99,,2013-02-17 15:32:00,
2013-02-17 10:42:00,20.0,-99.9,-100.00,WNW,293,0.0,-999.0,-999,-99.99,,,-99.99,,2013-02-17 15:42:00,
2013-02-17 10:52:00,21.0,-99.9,-100.00,WNW,285,2.0,-999.0,-999,-99.99,,,-99.99,,2013-02-17 15:52:00,
2013-02-17 11:02:00,22.0,-99.9,-100.00,NW,326,0.0,-999.0,-999,-99.99,,,-99.99,,2013-02-17 16:02:00,
2013-02-17 11:12:00,22.0,-99.9,-100.00,NW,326,0.0,-999.0,-999,-99.99,,,-99.99,,2013-02-17 16:12:00,
2013-02-17 11:22:00,22.0,-99.9,-100.00,NW,326,0.0,-999.0,-999,-99.99,,,-99.99,,2013-02-17 16:22:00,
2013-02-17 11:32:00,22.0,-99.9,-100.00,NW,326,0.0,-999.0,-999,-99.99,,,-99.99,,2013-02-17 16:32:00,
2013-02-17 11:42:00,22.0,-99.9,-100.00,NW,326,0.0,-999.0,-999,-99.99,,,-99.99,,2013-02-17 16:42:00,
2013-02-17 11:52:00,24.0,-99.9,-100.00,SSW,195,2.0,-999.0,-999,-99.99,,,-99.99,,2013-02-17 16:52:00,
2013-02-17 12:02:00,25.0,-99.9,-100.00,SW,224,2.0,-999.0,-999,-99.99,,,-99.99,,2013-02-17 17:02:00,
2013-02-17 12:11:00,25.0,-99.9,-100.00,SW,224,2.0,-999.0,-999,-99.99,,,-99.99,,2013-02-17 17:11:00,
2013-02-17 12:22:00,26.0,-99.9,-100.00,South,177,3.0,-999.0,-999,-99.99,,,-99.99,,2013-02-17 17:22:00,
2013-02-17 12:32:00,26.0,-99.9,-100.00,South,177,3.0,-999.0,-999,-99.99,,,-99.99,,2013-02-17 17:32:00,
2013-02-17 12:42:00,26.0,-99.9,-100.00,South,177,3.0,-999.0,-999,-99.99,,,-99.99,,2013-02-17 17:42:00,
2013-02-17 12:53:00,26.0,-99.9,-100.00,South,177,3.0,-999.0,-999,-99.99,,,-99.99,,2013-02-17 17:53:00,
2013-02-17 13:02:00,26.0,-99.9,-100.00,South,177,3.0,-999.0,-999,-99.99,,,-99.99,,2013-02-17 18:02:00,
2013-02-17 13:33:00,27.0,-99.9,-100.00,SSW,209,0.0,-999.0,-999,-99.99,,,-99.99,,2013-02-17 18:33:00,
2013-02-17 13:42:00,27.0,-99.9,-100.00,SSW,209,0.0,-999.0,-999,-99.99,,,-99.99,,2013-02-17 18:42:00,
2013-02-17 13:52:00,26.0,-99.9,-100.00,West,260,1.0,-999.0,-999,-99.99,,,-99.99,,2013-02-17 18:52:00,
2013-02-17 14:02:00,26.0,-99.9,-100.00,West,260,1.0,-999.0,-999,-99.99,,,-99.99,,2013-02-17 19:02:00,
2013-02-17 14:11:00,26.0,-99.9,-100.00,West,260,1.0,-999.0,-999,-99.99,,,-99.99,,2013-02-17 19:11:00,
2013-02-17 14:22:00,26.0,-99.9,-100.00,West,260,1.0,-999.0,-999,-99.99,,,-99.99,,2013-02-17 19:22:00,
2013-02-17 14:32:00,25.0,-99.9,-100.00,WNW,296,3.0,-999.0,-999,-99.99,,,-99.99,,2013-02-17 19:32:00,
2013-02-17 14:42:00,25.0,-99.9,-100.00,WNW,296,3.0,-999.0,-999,-99.99,,,-99.99,,2013-02-17 19:42:00,
2013-02-17 14:52:00,25.0,-99.9,-100.00,WNW,296,3.0,-999.0,-999,-99.99,,,-99.99,,2013-02-17 19:52:00,
2013-02-17 15:02:00,25.0,-99.9,-100.00,WNW,296,3.0,-999.0,-999,-99.99,,,-99.99,,2013-02-17 20:02:00,
2013-02-17 15:11:00,25.0,-99.9,-100.00,WNW,296,3.0,-999.0,-999,-99.99,,,-99.99,,2013-02-17 20:11:00,
2013-02-17 16:53:00,30.0,-99.9,-100.00,South,174,0.0,-999.0,-999,-99.99,,,-99.99,,2013-02-17 21:53:00,
2013-02-17 17:01:00,30.0,-99.9,-100.00,South,176,1.0,-999.0,-999,-99.99,,,-99.99,,2013-02-17 22:01:00,
2013-02-17 17:12:00,30.0,-99.9,-100.00,South,176,1.0,-999.0,-999,-99.99,,,-99.99,,2013-02-17 22:12:00,
2013-02-17 17:22:00,29.0,-99.9,-100.00,SSW,207,5.0,-999.0,-999,-99.99,,,-99.99,,2013-02-17 22:22:00,
2013-02-17 17:32:00,29.0,-99.9,-100.00,SSW,210,2.0,-999.0,-999,-99.99,,,-99.99,,2013-02-17 22:32:00,
2013-02-17 17:42:00,29.0,-99.9,-100.00,SSW,210,2.0,-999.0,-999,-99.99,,,-99.99,,2013-02-17 22:42:00,
2013-02-17 17:52:00,29.0,-99.9,-100.00,SSW,200,3.0,-999.0,-999,-99.99,,,-99.99,,2013-02-17 22:52:00,
2013-02-17 18:02:00,28.0,-99.9,-100.00,South,183,3.0,-999.0,-999,-99.99,,,-99.99,,2013-02-17 23:02:00,
2013-02-17 18:11:00,28.0,-99.9,-100.00,South,183,3.0,-999.0,-999,-99.99,,,-99.99,,2013-02-17 23:11:00,
2013-02-17 18:22:00,27.0,-99.9,-100.00,South,186,3.0,-999.0,-999,-99.99,,,-99.99,,2013-02-17 23:22:00,
2013-02-17 18:32:00,27.0,-99.9,-100.00,South,185,0.0,-999.0,-999,-99.99,,,-99.99,,2013-02-17 23:32:00,
2013-02-17 18:42:00,27.0,-99.9,-100.00,South,185,0.0,-999.0,-999,-99.99,,,-99.99,,2013-02-17 23:42:00,
2013-02-17 18:52:00,27.0,-99.9,-100.00,South,185,0.0,-999.0,-999,-99.99,,,-99.99,,2013-02-17 23:52:00,
2013-02-17 19:02:00,27.0,-99.9,-100.00,South,185,0.0,-999.0,-999,-99.99,,,-99.99,,2013-02-18 00:02:00,
2013-02-17 19:12:00,27.0,-99.9,-100.00,South,185,0.0,-999.0,-999,-99.99,,,-99.99,,2013-02-18 00:12:00,
2013-02-17 19:22:00,26.0,-99.9,-100.00,South,185,0.0,-999.0,-999,-99.99,,,-99.99,,2013-02-18 00:22:00,
2013-02-17 19:32:00,26.0,-99.9,-100.00,South,185,0.0,-999.0,-999,-99.99,,,-99.99,,2013-02-18 00:32:00,
2013-02-17 19:42:00,26.0,-99.9,-100.00,South,185,0.0,-999.0,-999,-99.99,,,-99.99,,2013-02-18 00:42:00,
2013-02-17 19:52:00,25.0,-99.9,-100.00,South,185,0.0,-999.0,-999,-99.99,,,-99.99,,2013-02-18 00:52:00,
2013-02-17 20:02:00,25.0,-99.9,-100.00,South,185,0.0,-999.0,-999,-99.99,,,-99.99,,2013-02-18 01:02:00,
2013-02-17 20:12:00,25.0,-99.9,-100.00,South,185,0.0,-999.0,-999,-99.99,,,-99.99,,2013-02-18 01:12:00,
2013-02-17 20:22:00,25.0,-99.9,-100.00,South,185,0.0,-999.0,-999,-99.99,,,-99.99,,2013-02-18 01:22:00,
2013-02-17 20:32:00,24.0,-99.9,-100.00,South,185,0.0,-999.0,-999,-99.99,,,-99.99,,2013-02-18 01:32:00,
2013-02-17 20:42:00,24.0,-99.9,-100.00,South,185,0.0,-999.0,-999,-99.99,,,-99.99,,2013-02-18 01:42:00,
2013-02-17 20:52:00,24.0,-99.9,-100.00,South,185,0.0,-999.0,-999,-99.99,,,-99.99,,2013-02-18 01:52:00,
2013-02-17 21:02:00,24.0,-99.9,-100.00,South,185,0.0,-999.0,-999,-99.99,,,-99.99,,2013-02-18 02:02:00,
2013-02-17 21:11:00,24.0,-99.9,-100.00,South,185,0.0,-999.0,-999,-99.99,,,-99.99,,2013-02-18 02:11:00,
2013-02-17 21:22:00,24.0,-99.9,-100.00,South,185,0.0,-999.0,-999,-99.99,,,-99.99,,2013-02-18 02:22:00,
2013-02-17 21:32:00,23.0,-99.9,-100.00,South,185,0.0,-999.0,-999,-99.99,,,-99.99,,2013-02-18 02:32:00,
2013-02-17 21:42:00,23.0,-99.9,-100.00,South,185,0.0,-999.0,-999,-99.99,,,-99.99,,2013-02-18 02:42:00,
2013-02-17 21:52:00,23.0,-99.9,-100.00,South,185,0.0,-999.0,-999,-99.99,,,-99.99,,2013-02-18 02:52:00,
2013-02-17 22:02:00,23.0,-99.9,-100.00,South,185,0.0,-999.0,-999,-99.99,,,-99.99,,2013-02-18 03:02:00,
2013-02-17 22:12:00,23.0,-99.9,-100.00,South,185,0.0,-999.0,-999,-99.99,,,-99.99,,2013-02-18 03:12:00,
2013-02-17 22:22:00,23.0,-99.9,-100.00,South,185,0.0,-999.0,-999,-99.99,,,-99.99,,2013-02-18 03:22:00,
2013-02-17 22:32:00,23.0,-99.9,-100.00,South,185,2.0,-999.0,-999,-99.99,,,-99.99,,2013-02-18 03:32:00,
2013-02-17 22:42:00,23.0,-99.9,-100.00,South,185,2.0,-999.0,-999,-99.99,,,-99.99,,2013-02-18 03:42:00,
2013-02-17 22:52:00,23.0,-99.9,-100.00,South,185,2.0,-999.0,-999,-99.99,,,-99.99,,2013-02-18 03:52:00,
2013-02-17 23:01:00,23.0,-99.9,-100.00,South,185,2.0,-999.0,-999,-99.99,,,-99.99,,2013-02-18 04:01:00,
2013-02-17 23:11:00,23.0,-99.9,-100.00,South,185,2.0,-999.0,-999,-99.99,,,-99.99,,2013-02-18 04:11:00,
2013-02-17 23:32:00,22.0,-99.9,-100.00,South,177,0.0,-999.0,-999,-99.99,,,-99.99,,2013-02-18 04:32:00,
2013-02-17 23:42:00,22.0,-99.9,-100.00,South,177,0.0,-999.0,-999,-99.99,,,-99.99,,2013-02-18 04:42:00,
2013-02-17 23:52:00,23.0,-99.9,-100.00,SSE,154,3.0,-999.0,-999,-99.99,,,-99.99,,2013-02-18 04:52:00,